{"data":{"norad_id":64228,"intl_designator":"2025-117AB","name":"STARLINK-34167","alt_names":[],"object_type":"PAYLOAD","status":"ACTIVE","operator":null,"country":"US","launch_date":"2025-05-31","launch_site_code":"AFWTR","launch_vehicle":null,"mission":null,"orbit_class":"UNKNOWN","rcs_meters":null,"size_class":null,"mass_kg":null,"dimensions":null,"purposes":["comms"],"wikipedia_slug":null,"has_3d_model":false,"image_url":null,"decayed_at":null,"tle_current":{"epoch":"2026-05-25T02:41:57.399360Z","epoch_age_seconds":69299,"freshness":"FRESH","line1":"1 64228U 25117AB  26145.11246990  .00022784  00000+0  68341-3 0  9995","line2":"2 64228  53.1602  43.4004 0001238  84.7964 275.3179 15.34399827 56273","mean_motion":15.34399827,"eccentricity":0.0001238,"inclination_deg":53.1602,"raan_deg":43.4004,"arg_perigee_deg":84.7964,"mean_anomaly_deg":275.3179,"bstar":0.00068341,"rev_number":5627,"period_min":93.84776866245,"perigee_km":461.85685831422,"apogee_km":463.55065048501,"semimajor_km":6840.8407543996,"source":"CELESTRAK","updated_at":"2026-05-25T13:38:20.349469Z"}}}